Location: Beutels
(47.8767°N, 9.8584°E)
Time: 01:58:58
(UTC+00:00)

ALOS 2 - Pass Details

Date: 19 May 2025
Orbit: 630 x 632 km, 97.9° (Epoch: 23 June)

Event Time Altitude Azimuth Distance (km) Brightness Sun altitude
Exits shadow 22:18:01 41° 113° (ESE) 923 3.1 -20.9°
Maximum altitude 22:19:03 50° 71° (ENE) 808 3.1 -20.9°
Drops below altitude 10° 22:23:19 10° 356° (N) 2,027 6.3 -21.1°
Sets 22:25:34 0° 351° (N) 2,940 7.6 -21.2°
